Location: Favalello
(42.2939°N, 9.2706°E)
Time: 11:38:53
(UTC+00:00)

Cosmos 2026 Rocket - Pass Details

Date: 06 December 2019
Orbit: 940 x 1000 km, 82.9° (Epoch: 23 January)

Event Time Altitude Azimuth Distance (km) Brightness Sun altitude
Rises 18:01:58 0° 186° (S) 3,605 7.2 -23.6°
Reaches altitude 10° 18:04:27 10° 186° (S) 2,658 6.4 -24.0°
Maximum altitude 18:10:32 89° 278° (W) 948 3.8 -25.1°
Enters shadow 18:15:48 14° 7° (N) 2,357 5.9 -26.1°
